Hourly Data Report for October 08, 2016

All times are specified in Local Standard Time (LST). Add 1 hour to adjust for Daylight Saving Time where and when it is observed.

BAKER LAKE A
NUNAVUT

64°17'56.000" N
96°04'40.000" W
18.60 m
2300503
71926
YBK

Download Data

Hourly Data (October 2016)
Hourly Data Report for October 8, 2016
Temp Definition
°C
Dew Point Temp Definition
°C
Rel Hum Definition
%
Wind Dir Definition
10's deg

Wind Spd Definition
km/h
Visibility Definition
km
Stn Press Definition
kPa
Hmdx Definition


Wind Chill Definition


Weather Definition


TIME
00:00 Legend Double Dagger -1.6 -3.5 87 36 1 24.1 102.41   -2 Cloudy
01:00 Legend Double Dagger -1.7 -3.1 90 24 10 24.1 102.37   -5 LegendNANA
02:00 Legend Double Dagger -1.6 -3.5 87 22 8 24.1 102.37   -5 LegendNANA
03:00 Legend Double Dagger -1.4 -2.8 90 36 2 24.1 102.37   -2 Cloudy
04:00 Legend Double Dagger -1.6 -2.6 93 29 7 24.1 102.33   -4 LegendNANA
05:00 Legend Double Dagger -1.1 -2.4 91 31 9 24.1 102.34   -4 LegendNANA
06:00 Legend Double Dagger -0.9 -3.4 83 32 13 24.1 102.30   -5 Cloudy
07:00 Legend Double Dagger -1.2 -3.7 83 34 9 32.2 102.29   -4 LegendNANA
08:00 Legend Double Dagger -0.9 -3.6 82 32 11 32.2 102.28   -5 LegendNANA
09:00 Legend Double Dagger -0.7 -4.6 75 33 13 32.2 102.25   -5 Mostly Cloudy
10:00 Legend Double Dagger -0.9 -5.5 71 34 11 32.2 102.22   -5 LegendNANA
11:00 Legend Double Dagger -0.3 -6.1 65 36 3 32.2 102.18   -1 LegendNANA
12:00 Legend Double Dagger -0.1 -5.1 69 1 7 32.2 102.15   -3 Mostly Cloudy
13:00 Legend Double Dagger 0.0 -3.9 75 1 7 32.2 102.13   -2 Snow
14:00 Legend Double Dagger 0.2 -3.2 78 36 16 32.2 102.12     LegendNANA
15:00 Legend Double Dagger -0.3 -3.3 80 34 18 32.2 102.13   -5 Mostly Cloudy
16:00 Legend Double Dagger -0.4 -3.3 81 33 9 24.1 102.13   -4 LegendNANA
17:00 Legend Double Dagger -0.6 -3.1 83 31 7 32.2 102.12   -3 LegendNANA
18:00 Legend Double Dagger -0.9 -3.1 85 30 7 24.1 102.10   -3 Cloudy
19:00 Legend Double Dagger -1.0 -2.9 87 29 14 24.1 102.07   -5 Snow
20:00 Legend Double Dagger -1.1 -2.7 89 29 12 24.1 102.05   -5 Snow
21:00 Legend Double Dagger -1.0 -2.4 90 29 18 24.1 102.03   -6 Snow
22:00 Legend Double Dagger -1.2 -2.5 91 29 12 24.1 102.01   -5 Snow
23:00 Legend Double Dagger -1.2 -2.5 91 29 12 24.1 102.00   -5 Snow

Notes on Data Quality.

Legend

  • E = Estimated
  • M = Missing
  • NA = Not Available
  • ‡ = Partner data that is not subject to review by the National Climate Archives
Date modified: